Regional Weather Roundup
Issued by NWS Upton, NY

Current Version | Previous Version | Graphics & Text | Print | Product List | Glossary Off
Versions: 1 2 3 4 5 6 7 8 9 10 11 12 13 14 15 16 17 18 19 20 21 22 23 24 25 26 27 28 29 30 31 32 33 34 35 36 37 38 39 40 41 42 43 44 45 46 47 48 49 50
000 ASUS41 KOKX 201405 RWROKX REGIONAL WEATHER ROUNDUP NATIONAL WEATHER SERVICE NEW YORK NY 1000 AM EDT MON OCT 20 2014 NOTE: "FAIR" INDICATES FEW OR NO CLOUDS BELOW 12,000 FEET WITH NO SIGNIFICANT WEATHER AND/OR OBSTRUCTIONS TO VISIBILITY. NYZ071-072-176-178-NJZ106-104-201500- NEW YORK CITY METRO AREA CITY SKY/WX TMP DP RH WIND PRES REMARKS CENTRAL PARK PTSUNNY 48 31 51 CALM 30.14F LAGUARDIA APRT PTSUNNY 49 31 49 SW6 30.12S KENNEDY INTL PTSUNNY 50 35 56 W7 30.14S NEWARK/LIBERTY PTSUNNY 46 31 55 SW7 30.13S BRNX BOT. GARD N/A N/A N/A N/A W3 30.14R TETERBORO PTSUNNY 48 29 47 SW7 30.11F $$ NYZ177-179-078>081-201500- LONG ISLAND NEW YORK CITY SKY/WX TMP DP RH WIND PRES REMARKS FARMINGDALE MOSUNNY 50 32 50 W6 30.13S ISLIP PTSUNNY 50 33 52 W6 30.11S SHIRLEY SUNNY 49 35 58 W7 30.13R WESTHAMPTON SUNNY 49 34 56 SW7 30.14S MONTAUK POINT N/A 50 36 58 W9G16 30.13R $$ NYZ052-065-067-201500- HUDSON VALLEY CITY SKY/WX TMP DP RH WIND PRES REMARKS WHITE PLAINS MOSUNNY 45 32 60 W3 30.10S NEWBURGH PTSUNNY 45 34 65 W5 30.10S MONTGOMERY PTSUNNY 45 32 60 S7 30.09S POUGHKEEPSIE MOSUNNY 46 31 55 S7 30.10S ALBANY PTSUNNY 43 32 65 S9 30.06R $$ NJZ001-105-106-008-010-013-015-019>022-104-201500- NEW JERSEY CITY SKY/WX TMP DP RH WIND PRES REMARKS NEWARK/LIBERTY PTSUNNY 46 31 55 SW7 30.13S TETERBORO PTSUNNY 48 29 47 SW7 30.11F CALDWELL PTSUNNY 45 29 53 VRB3 30.13S MORRISTOWN PTSUNNY 46 32 57 SW8 30.13R SOMERVILLE PTSUNNY 43 35 73 CALM 30.12S SUSSEX MOSUNNY 44 32 62 SW8 30.10S ANDOVER N/A 42 31 64 SW6 30.11S TRENTON PTSUNNY 46 34 62 SW7 30.13S MILLVILLE SUNNY 54 41 61 VRB3 30.14F ATLANTIC CITY SUNNY 54 39 57 S7 30.15R WRIGHTSTOWN CLOUDY 49 34 54 S7 30.12S TOMS RIVER SUNNY 52 32 46 CALM 30.15S BELMAR MOSUNNY 48 30 49 S5 30.13S $$ PAZ047>061-062-071-201500- EASTERN PENNSYLVANIA CITY SKY/WX TMP DP RH WIND PRES REMARKS PHILADELPHIA PTSUNNY 51 36 56 SW5 30.14F ALLENTOWN MOSUNNY 44 34 67 CALM 30.12S SCRANTON MOSUNNY 42 32 67 CALM 30.06F $$ CTZ002-004>006-009-010-012-RIZ004-006-007-MAZ004-011-015-201500- SOUTHERN NEW ENGLAND IN CT CITY SKY/WX TMP DP RH WIND PRES REMARKS BRADLEY INTL PTSUNNY 46 31 55 SW8 30.08R HARTFORD SUNNY 46 32 58 S9 30.10S DANBURY SUNNY 45 30 55 SW7 30.12R WTRBRY/OXFORD SUNNY 43 28 56 CALM 30.11R BRIDGEPORT SUNNY 49 34 56 W6 30.12R MERIDEN SUNNY 47 30 51 W5 30.11S NEW HAVEN MOSUNNY 50 33 52 SW7 30.12R CHESTER FAIR 46 30 53 SW9 30.11S GROTON SUNNY 49 33 54 W9 30.11S WILLIMANTIC SUNNY 44 30 57 VRB5 30.10S IN RI CITY SKY/WX TMP DP RH WIND PRES REMARKS PROVIDENCE MOSUNNY 46 31 55 W9 30.10S BLOCK ISLAND SUNNY 52 32 46 W10 30.10R WESTERLY SUNNY 48 30 49 VRB6 30.12R IN MA CITY SKY/WX TMP DP RH WIND PRES REMARKS BOSTON MOSUNNY 46 28 49 SW12 30.06F WORCESTER PTSUNNY 41 30 65 SW13 30.04S WESTFIELD MOSUNNY 44 32 62 S9 30.08R PROVINCETOWN SUNNY 46 28 49 W15G21 30.07S NANTUCKET SUNNY 48 27 44 W14G22 30.09R $$ ANZ330-335-338-340-345-350-353-355-201500- COASTAL MARINE OBSERVATIONS STATION/POSITION TIME SKY/WX TEMP WIND PRES VSBY WAVE AIR SEA DIR/SP/G HT/PER (UTC) (F) (DEG/KT/KT) (MB) (MI) (FT/S) NY HARB ENTRANCE NOT AVBL 4S FIRE IS 1400 63 N/A 2/11 20S FIRE ISLAND 1400 51 63 280/ 6/ 10 1020.6 2/10 23SW MTP 1400 N/A 2/10 HUDSON CANYON 1400 53 65 290/ 10/ 12 1020.8 3/ 5 EXECUTION ROCKS 1400 50 64 240/ 8/ 12 N/A WESTERN LI SOUND 1400 49 250/ 10/ 14 N/A 1 CENTRAL LI SOUND 1300 49 64 260/ 8/ 14 N/A 1/ 3 EASTERN LI SOUND 1300 54 63 280/ 10/ 14 N/A ROBBINS REEF 1400 46 250/ 10/ 12 1019.0 $$ >>>>>>>>>>>>>>>>>>>>>>>>>>>> KEY <<<<<<<<<<<<<<<<<<<<<<<<<<< > < > SKY/WX - SKY CONDITION/PRESENT WEATHER < > TMP - TEMPERATURE IN FAHRENHEIT < > DP - DEWPOINT IN FAHRENHEIT < > RH - RELATIVE HUMIDITY IN PERCENT < > WIND - DIRECTION AND SPEED IN MPH < > PRES - MEAN SEA LEVEL PRESSURE IN INCHES OF HG < > WCI - WIND CHILL INDEX < > VSB - VISIBILITY IN MILES < > HX - HEAT INDEX < > TC - TEMPERATURE IN CELSIUS < > VRB - VARIABLE WIND DIRECTION < > < >>>>>>>>>>>>>>>>>>>>>>>>>>>> KEY <<<<<<<<<<<<<<<<<<<<<<<<<<<

USA.gov is the U.S. government's official web portal to all federal, state and local government web resources and services.